Wind_Speed
13 13 13 13 13 14 13 13 13 13 14 14 14 13 13 14 14 14 14 14 15 16 17 18 20 21 22 23 24 25 26 27 29 31 33 34 35 37 38 39 40 40 40 40
14 14 14 13 13 14 13 13 14 14 14 14 14 14 14 14 14 14 14 15 16 17 18 20 21 22 23 24 25 26 27 29 31 33 35 36 37 39 40 41 41 42 42 41
14 15 15 12 13 13 13 13 13 13 15 15 15 15 15 15 15 15 15 16 17 18 20 21 22 23 24 25 26 27 29 31 33 35 36 38 39 40 41 42 43 43 42 42
14 14 13 12 13 12 11 13 13 14 15 16 16 16 16 15 15 16 16 17 18 20 21 22 24 25 25 26 27 29 30 32 34 36 38 39 41 42 43 44 44 43 43 42
14 14 13 13 14 13 13 13 15 15 17 17 17 17 17 16 16 17 17 18 20 21 23 24 25 26 26 27 28 30 31 33 35 37 39 41 43 44 45 45 44 44 43 41
15 15 14 15 17 15 15 15 18 18 19 19 18 18 18 18 17 18 19 20 22 23 25 26 27 27 27 28 29 31 33 35 37 39 41 42 44 45 45 45 44 44 42 41
18 17 15 20 18 17 17 19 21 21 21 20 20 19 20 20 20 20 21 22 24 25 27 27 28 29 29 30 30 32 34 37 39 41 43 44 46 46 46 45 44 43 41 40
21 19 20 23 20 20 21 22 22 22 22 22 22 22 22 22 23 24 24 25 26 28 29 29 29 30 31 31 33 35 37 39 41 43 45 46 47 47 46 45 44 42 40 39
24 24 26 24 23 23 23 23 24 24 24 24 24 24 25 25 26 27 28 28 29 30 31 31 32 32 33 34 35 37 39 41 43 45 46 47 48 47 46 44 43 41 40 38
26 27 26 26 25 25 25 25 26 26 27 27 27 28 28 28 29 30 31 32 32 33 34 34 34 34 35 36 37 39 42 44 45 47 47 48 48 47 46 44 42 40 39 38
26 27 27 28 27 27 27 27 28 29 29 30 30 30 31 31 32 33 34 34 35 36 37 37 38 38 38 38 40 43 45 46 47 48 49 48 48 47 46 44 42 40 39 38
28 28 28 29 29 29 30 30 31 31 32 32 33 33 33 34 34 35 36 37 38 40 40 40 42 42 41 42 43 45 47 48 49 50 49 48 48 46 45 43 41 39 38 37
28 29 30 30 30 31 32 32 33 33 34 34 34 35 36 36 37 38 39 40 41 43 44 44 46 46 45 45 45 46 48 49 50 50 49 49 48 45 43 41 39 38 37 36
29 30 31 32 32 33 33 34 34 34 35 36 36 37 37 38 39 41 42 43 44 46 47 47 47 48 49 48 48 49 49 50 50 49 50 49 47 44 41 39 38 37 36 35
30 31 32 33 34 34 35 35 36 36 37 37 38 39 40 41 42 44 45 46 47 48 49 49 49 50 51 50 50 50 50 49 49 50 50 48 45 42 40 38 36 35 34 34
32 33 34 35 36 36 37 37 38 39 40 40 41 42 43 45 47 48 49 49 50 50 51 52 53 52 52 52 51 51 51 50 49 49 48 46 44 41 38 36 34 33 32 31
34 35 36 37 38 39 40 41 41 42 43 44 45 46 48 49 50 51 52 52 53 53 53 54 54 54 53 53 53 52 50 49 48 47 45 44 42 39 36 34 32 31 30 30
37 38 39 40 41 41 42 43 45 46 47 48 49 50 51 52 53 53 53 54 55 56 56 56 56 56 56 55 54 52 50 49 47 45 44 42 39 37 34 32 30 29 28 27
40 41 42 43 44 45 46 47 48 49 50 51 51 52 53 53 54 54 55 56 57 57 57 57 57 56 55 54 52 51 49 47 45 44 42 39 37 34 32 29 28 27 26 24
43 44 45 46 47 48 48 49 50 51 52 53 53 54 54 55 56 57 57 58 59 59 58 57 56 55 54 53 52 50 48 46 44 42 39 36 33 31 29 26 25 25 24 23
45 46 47 48 49 50 51 52 53 53 54 55 55 56 56 57 58 58 58 59 59 59 58 58 57 56 55 53 51 49 47 44 42 39 36 33 30 27 26 24 23 23 22 21
47 48 49 50 51 52 52 53 54 55 56 56 57 57 58 58 59 59 59 59 59 59 58 57 56 55 54 52 49 47 44 42 39 35 32 29 27 25 23 22 21 20 20 19
49 50 51 51 52 53 53 54 55 56 56 57 57 58 58 58 58 59 59 58 58 58 57 56 54 53 51 49 46 44 41 38 35 31 29 27 24 23 21 20 19 18 18 17
50 51 52 53 53 54 54 54 55 55 56 56 56 57 57 57 57 57 57 56 56 55 53 52 50 48 46 43 41 39 36 34 31 28 26 24 22 20 19 18 17 16 15 14
51 51 52 53 53 53 53 53 53 53 53 53 53 53 53 53 53 52 52 51 50 49 48 46 44 41 38 36 35 33 31 29 27 25 23 22 20 19 17 16 15 15 14 12
50 51 51 51 51 51 51 51 51 51 50 49 49 48 48 48 47 47 46 45 44 43 41 39 36 34 32 31 29 27 26 24 22 20 20 20 18 17 15 14 14 13 12 11
49 49 49 49 49 49 49 48 47 46 46 45 44 44 43 43 43 43 42 41 40 38 35 33 30 28 25 24 23 22 21 20 19 18 18 17 17 16 14 13 12 11 10 9
Wind_Direction
270 274 276 275 276 278 277 271 266 267 273 280 286 294 299 302 301 301 301 302 304 306 310 314 318 322 324 325 326 326 326 326 326 326 325 325 324 323 322 320 319 318 316 313
272 277 279 277 277 277 274 271 269 270 275 280 289 296 300 302 302 301 301 302 305 308 312 315 319 322 324 325 326 326 326 326 326 326 326 325 325 324 323 321 320 318 316 314
268 272 278 283 278 274 271 269 269 272 277 286 293 297 299 300 300 300 300 303 307 310 313 316 319 321 323 324 324 324 325 325 326 326 326 326 325 324 323 322 321 319 317 315
265 268 272 270 273 276 273 272 274 279 285 292 295 298 298 298 299 299 300 303 307 310 313 316 319 320 321 322 323 324 325 325 326 327 327 327 327 326 324 323 321 320 318 316
261 264 271 270 274 278 276 277 280 284 287 291 295 297 297 296 297 298 300 303 306 309 313 315 317 318 319 320 321 322 323 325 326 327 328 328 327 327 325 324 322 321 319 317
257 253 255 261 268 275 279 284 281 284 287 290 293 295 296 296 296 297 300 303 306 309 312 314 315 315 316 318 319 321 322 325 326 327 328 328 328 327 326 325 324 321 320 319
257 258 259 260 267 273 277 276 280 285 288 290 291 293 294 295 297 298 300 303 306 308 310 312 313 314 314 316 318 320 322 324 326 327 327 328 328 327 327 326 325 323 321 321
256 260 259 263 267 268 272 278 284 286 288 289 291 293 294 296 298 299 301 303 305 307 308 310 312 312 313 314 316 319 321 323 324 325 326 327 328 327 327 327 325 324 323 322
253 255 259 264 268 270 274 279 284 287 289 291 292 295 296 298 299 300 302 303 305 306 307 308 310 310 311 313 315 318 321 323 324 325 325 327 328 328 328 327 326 325 325 324
258 259 262 267 270 273 276 280 283 286 289 290 292 294 296 298 299 300 301 302 304 305 305 306 307 308 310 312 314 317 320 321 322 323 324 325 327 327 327 327 326 325 325 325
261 263 266 269 271 273 276 280 282 285 287 288 290 292 293 294 296 298 299 301 302 303 302 303 304 304 305 308 311 314 317 319 321 322 323 324 325 326 326 326 325 325 325 326
262 266 267 270 272 275 277 279 281 283 285 287 288 290 292 293 294 295 297 299 300 300 299 299 301 301 302 306 309 311 314 317 318 320 321 322 324 325 325 324 324 324 324 325
265 267 269 271 273 274 276 278 280 282 284 286 287 289 290 291 292 293 293 297 298 297 297 298 300 301 301 304 306 309 311 314 316 317 318 321 323 323 323 322 323 323 324 325
267 269 271 273 275 276 277 279 280 282 284 285 286 287 288 288 288 289 291 294 295 296 296 297 299 300 302 303 304 306 309 311 313 314 316 319 321 321 321 321 322 323 323 325
269 272 274 276 277 279 280 282 283 284 285 286 286 286 286 286 286 287 289 290 292 294 295 295 296 298 300 301 302 303 306 309 310 312 314 316 318 319 319 319 320 321 322 324
272 273 275 277 279 281 282 283 284 284 284 284 284 285 285 285 286 287 288 289 290 291 293 294 295 296 298 299 300 301 304 306 308 310 311 313 315 316 316 316 317 319 321 323
274 276 277 278 280 281 282 282 282 282 282 283 283 283 284 284 285 286 287 288 289 290 291 292 293 295 296 298 299 301 302 304 305 307 308 310 311 312 312 313 313 316 319 321
275 277 279 280 280 281 281 281 282 282 282 283 283 284 284 284 285 286 286 286 288 289 290 291 292 294 295 297 298 300 301 302 302 303 304 306 307 308 308 309 310 312 316 319
276 277 278 279 280 280 281 281 282 283 284 284 285 285 286 286 286 287 287 287 288 289 290 291 292 293 294 295 296 297 298 298 299 299 300 301 302 303 304 304 306 308 311 316
277 278 279 280 281 282 283 283 284 285 285 286 286 286 286 286 287 288 288 289 289 290 290 291 291 292 292 293 293 294 294 294 295 295 296 296 296 297 298 299 301 305 308 311
279 280 281 282 283 284 285 286 286 287 287 288 288 288 288 289 289 289 290 290 290 290 291 291 291 291 291 291 291 291 291 290 290 291 291 291 291 291 293 295 298 301 304 308
282 283 284 285 286 287 287 288 288 289 289 290 290 290 291 291 291 291 291 291 291 291 290 290 290 290 289 288 288 287 286 286 285 285 285 284 283 284 286 290 293 296 302 304
285 285 286 287 287 288 289 289 290 290 291 291 292 292 292 292 292 292 292 291 291 291 290 290 289 288 287 285 283 282 281 280 279 278 277 277 275 276 279 282 286 291 297 302
286 287 288 288 289 290 290 291 292 292 293 293 293 294 294 294 294 294 293 293 292 291 290 289 287 286 284 281 279 277 276 274 272 270 269 268 267 268 271 275 279 285 291 298
288 289 289 290 291 292 292 293 294 294 295 295 295 296 296 296 296 296 295 294 293 292 291 289 286 283 280 277 274 271 269 267 264 262 259 258 259 260 263 267 272 278 284 290
290 291 292 293 293 294 294 295 296 296 297 297 297 297 297 298 298 298 297 296 295 294 292 289 285 281 277 273 269 265 261 257 253 252 249 249 251 251 256 263 267 271 277 281
291 292 293 294 294 295 296 296 297 297 298 298 298 299 299 299 299 299 298 298 296 294 291 289 283 277 273 267 260 254 249 245 243 242 241 241 244 246 248 252 258 264 267 271
Height
5857 5856 5855 5854 5854 5853 5853 5852 5852 5852 5851 5849 5847 5846 5844 5843 5841 5839 5837 5835 5833 5831 5828 5825 5822 5818 5814 5810 5805 5801 5796 5792 5787 5782 5776 5771 5765 5759 5753 5747 5740 5734 5728 5721
5853 5852 5851 5851 5850 5849 5849 5848 5848 5847 5847 5845 5843 5842 5840 5839 5837 5835 5833 5831 5829 5826 5823 5820 5816 5813 5808 5804 5800 5795 5791 5786 5781 5775 5770 5764 5758 5751 5745 5738 5731 5724 5718 5711
5849 5849 5848 5848 5847 5845 5845 5844 5844 5844 5843 5841 5839 5838 5836 5834 5833 5830 5828 5826 5824 5821 5818 5815 5811 5807 5803 5799 5794 5790 5785 5780 5774 5769 5763 5756 5750 5743 5736 5729 5722 5715 5707 5701
5844 5845 5844 5847 5842 5842 5841 5840 5840 5839 5838 5836 5835 5833 5832 5830 5828 5826 5824 5821 5819 5816 5813 5809 5806 5801 5797 5793 5788 5784 5779 5773 5768 5762 5755 5749 5742 5735 5728 5720 5712 5705 5697 5690
5841 5841 5841 5841 5839 5838 5837 5837 5836 5835 5833 5832 5830 5829 5827 5825 5823 5821 5819 5816 5813 5810 5807 5804 5800 5795 5791 5787 5782 5778 5772 5767 5761 5755 5748 5741 5734 5726 5719 5711 5703 5695 5688 5680
5836 5836 5838 5838 5835 5834 5835 5833 5831 5830 5828 5827 5825 5824 5822 5820 5818 5815 5813 5810 5808 5804 5801 5797 5793 5789 5785 5781 5776 5771 5766 5760 5754 5747 5740 5733 5725 5718 5710 5702 5693 5685 5678 5670
5831 5831 5833 5831 5830 5830 5831 5830 5827 5825 5823 5822 5820 5819 5817 5814 5812 5809 5807 5804 5801 5798 5794 5791 5787 5782 5778 5774 5769 5764 5758 5752 5746 5739 5732 5725 5717 5709 5701 5693 5684 5676 5668 5661
5825 5827 5829 5824 5825 5825 5824 5822 5820 5819 5817 5816 5814 5812 5810 5808 5805 5803 5800 5797 5794 5791 5787 5783 5779 5775 5771 5767 5762 5756 5751 5744 5738 5731 5723 5716 5708 5700 5691 5683 5675 5667 5659 5652
5819 5821 5818 5818 5818 5817 5817 5816 5814 5812 5811 5809 5807 5805 5803 5801 5798 5795 5793 5790 5787 5783 5779 5775 5771 5767 5763 5758 5753 5747 5742 5736 5729 5722 5714 5706 5698 5690 5682 5674 5666 5659 5651 5643
5811 5811 5810 5811 5810 5810 5809 5808 5807 5805 5804 5802 5800 5798 5796 5793 5791 5788 5785 5782 5778 5775 5771 5767 5763 5758 5754 5749 5744 5738 5733 5727 5720 5712 5705 5697 5689 5681 5673 5665 5658 5650 5643 5635
5803 5803 5803 5803 5802 5802 5801 5800 5799 5797 5796 5794 5792 5790 5788 5785 5783 5780 5776 5773 5770 5766 5762 5758 5753 5749 5744 5740 5734 5729 5723 5717 5710 5703 5696 5688 5680 5672 5664 5657 5650 5643 5635 5628
5795 5795 5795 5795 5794 5793 5792 5791 5790 5789 5787 5785 5783 5781 5779 5776 5774 5770 5767 5764 5760 5757 5752 5748 5744 5739 5734 5729 5724 5719 5713 5707 5700 5693 5686 5678 5671 5663 5655 5649 5641 5634 5627 5621
5787 5786 5786 5786 5785 5784 5783 5782 5781 5779 5778 5776 5774 5772 5769 5766 5764 5760 5757 5754 5750 5746 5742 5738 5734 5729 5724 5719 5714 5708 5702 5696 5689 5683 5676 5669 5662 5654 5648 5641 5634 5627 5620 5613
5778 5777 5777 5776 5775 5774 5773 5772 5771 5769 5768 5766 5763 5761 5758 5756 5753 5749 5746 5743 5740 5736 5731 5727 5723 5718 5713 5708 5703 5697 5692 5686 5679 5673 5666 5659 5653 5646 5639 5633 5627 5620 5613 5607
5769 5768 5767 5766 5765 5764 5763 5761 5760 5758 5756 5754 5752 5749 5747 5744 5741 5738 5735 5731 5728 5724 5720 5716 5711 5707 5702 5697 5692 5686 5680 5675 5668 5662 5656 5650 5644 5637 5631 5625 5619 5613 5607 5600
5759 5758 5757 5756 5754 5753 5751 5750 5748 5746 5744 5741 5739 5737 5734 5731 5728 5725 5722 5719 5715 5711 5707 5703 5699 5694 5690 5685 5680 5674 5669 5664 5658 5651 5646 5640 5634 5629 5623 5618 5612 5607 5601 5595
5749 5748 5747 5745 5743 5742 5740 5738 5735 5733 5731 5729 5726 5724 5721 5718 5715 5712 5708 5705 5701 5697 5693 5689 5685 5681 5676 5672 5666 5661 5656 5651 5646 5641 5635 5630 5625 5620 5615 5610 5605 5600 5595 5590
5738 5736 5735 5733 5731 5729 5727 5725 5722 5720 5717 5715 5712 5710 5707 5704 5700 5697 5694 5690 5687 5683 5678 5674 5670 5666 5662 5657 5652 5647 5643 5638 5634 5629 5625 5620 5616 5611 5607 5603 5598 5594 5589 5585
5726 5724 5722 5720 5718 5716 5714 5711 5709 5706 5703 5700 5698 5695 5691 5688 5685 5681 5678 5674 5670 5666 5663 5658 5654 5650 5646 5642 5637 5633 5629 5625 5621 5617 5614 5610 5606 5603 5599 5595 5591 5587 5583 5579
5713 5711 5709 5707 5704 5702 5699 5697 5694 5691 5688 5685 5682 5678 5675 5671 5667 5664 5661 5656 5652 5648 5645 5641 5637 5633 5630 5626 5622 5618 5615 5612 5608 5605 5602 5599 5597 5594 5591 5588 5585 5581 5578 5574
5700 5698 5695 5693 5690 5687 5684 5681 5678 5675 5671 5668 5664 5661 5657 5653 5649 5646 5642 5638 5634 5630 5626 5622 5619 5615 5612 5609 5606 5603 5600 5598 5595 5593 5591 5589 5587 5585 5583 5580 5578 5575 5572 5569
5686 5683 5681 5678 5675 5672 5668 5665 5661 5658 5654 5650 5646 5642 5639 5635 5631 5626 5622 5618 5615 5610 5607 5604 5600 5597 5594 5591 5589 5587 5585 5584 5582 5581 5580 5579 5577 5576 5575 5573 5571 5569 5566 5563
5671 5668 5665 5662 5659 5655 5652 5648 5644 5640 5637 5633 5628 5624 5620 5616 5611 5607 5603 5599 5595 5590 5587 5584 5581 5578 5575 5573 5572 5571 5570 5570 5569 5569 5569 5568 5568 5568 5567 5566 5565 5563 5561 5559
5655 5652 5649 5645 5642 5639 5635 5631 5627 5623 5619 5614 5610 5605 5601 5597 5593 5588 5583 5579 5575 5571 5568 5565 5562 5559 5557 5556 5556 5555 5556 5556 5557 5558 5558 5559 5559 5559 5559 5559 5558 5557 5556 5554
5639 5636 5632 5629 5625 5622 5618 5614 5610 5606 5601 5597 5593 5588 5583 5578 5574 5570 5565 5561 5556 5553 5549 5546 5544 5542 5541 5540 5541 5542 5543 5544 5545 5547 5549 5550 5551 5552 5552 5552 5552 5551 5551 5549
5623 5620 5616 5612 5608 5605 5601 5597 5593 5589 5584 5580 5576 5571 5567 5562 5557 5553 5548 5544 5540 5536 5533 5530 5529 5527 5527 5527 5528 5530 5532 5534 5536 5538 5540 5542 5543 5545 5546 5546 5547 5546 5546 5545
5608 5604 5600 5597 5593 5589 5585 5581 5577 5573 5569 5565 5561 5557 5552 5548 5543 5538 5534 5530 5526 5522 5519 5517 5515 5515 5515 5516 5518 5520 5523 5525 5528 5530 5532 5535 5537 5538 5540 5541 5541 5542 5541 5541